BVG0643 LKPR-EGCC

Flight info

Callsign BVG0643
Flight time 1h 56m
Altitude 34000
Route BALT5A BALTU DCT DONAD DCT RAPET Z93 KODUK DCT MARZA DCT LOHRE DCT ADKUV DCT DENUT L610 LAM UN57 WELIN T420 ELVOS ELVO1M
Aircraft B739/M-SDE2E3FGHIRWXY/LB1

Departure

Time 2026-05-07 21:37
Airport Václav Havel Airport Prague (LKPR)

Arrival

Time 2026-05-07 23:33
Airport Manchester Airport (EGCC)
Time Latitude Longitude Altitude Speed Heading
2026-05-07 21:04 50.10938 14.26481 1255 ft 0 kts 216°
2026-05-07 21:31 50.10938 14.26480 1255 ft 0 kts 216°
2026-05-07 21:32 50.10934 14.26465 1255 ft 2 kts 268°
2026-05-07 21:33 50.10945 14.26434 1255 ft 4 kts 312°
2026-05-07 21:33 50.10972 14.26387 1255 ft 7 kts 312°
2026-05-07 21:33 50.11011 14.26320 1255 ft 9 kts 312°
2026-05-07 21:33 50.11057 14.26238 1255 ft 11 kts 304°
2026-05-07 21:34 50.11096 14.26122 1255 ft 13 kts 287°
2026-05-07 21:34 50.11120 14.25983 1255 ft 14 kts 285°
2026-05-07 21:34 50.11176 14.25984 1255 ft 14 kts 68°
2026-05-07 21:34 50.11221 14.26120 1255 ft 15 kts 63°
2026-05-07 21:35 50.11274 14.26287 1255 ft 18 kts 64°
2026-05-07 21:35 50.11330 14.26472 1255 ft 21 kts 68°
2026-05-07 21:35 50.11388 14.26626 1255 ft 11 kts 318°
2026-05-07 21:35 50.11352 14.26540 1255 ft 12 kts 231°
2026-05-07 21:36 50.11312 14.26442 1255 ft 11 kts 240°
2026-05-07 21:36 50.11258 14.26248 1255 ft 39 kts 246°
2026-05-07 21:36 50.11076 14.25628 1255 ft 88 kts 245°
2026-05-07 21:36 50.10757 14.24551 1255 ft 131 kts 238°
2026-05-07 21:37 50.10300 14.23124 1284 ft 161 kts 244°
2026-05-07 21:37 50.09787 14.21571 1577 ft 176 kts 242°
2026-05-07 21:37 50.09154 14.19714 1552 ft 201 kts 246°
2026-05-07 21:37 50.08705 14.17908 2637 ft 174 kts 248°
2026-05-07 21:38 50.08219 14.16215 3187 ft 179 kts 245°
2026-05-07 21:38 50.07793 14.14792 3417 ft 192 kts 245°
2026-05-07 21:38 50.07280 14.13077 3832 ft 202 kts 245°
2026-05-07 21:38 50.06686 14.11095 4151 ft 215 kts 245°
2026-05-07 21:39 50.06045 14.08956 4694 ft 219 kts 245°
2026-05-07 21:39 50.05393 14.06777 5123 ft 232 kts 246°
2026-05-07 21:39 50.04822 14.04524 5602 ft 237 kts 262°
2026-05-07 21:39 50.04893 14.02249 6429 ft 224 kts 287°
2026-05-07 21:40 50.05672 14.00220 7268 ft 223 kts 310°
2026-05-07 21:40 50.06849 13.98613 7759 ft 235 kts 317°
2026-05-07 21:40 50.08133 13.97052 8297 ft 240 kts 320°
2026-05-07 21:40 50.09470 13.95553 9041 ft 239 kts 321°
2026-05-07 21:41 50.10786 13.94119 9588 ft 244 kts 321°
2026-05-07 21:41 50.12115 13.92679 10148 ft 247 kts 321°
2026-05-07 21:41 50.13451 13.91233 10705 ft 250 kts 321°
2026-05-07 21:41 50.14933 13.89631 11145 ft 261 kts 321°
2026-05-07 21:42 50.16327 13.88126 11465 ft 274 kts 322°
2026-05-07 21:42 50.17920 13.86269 11745 ft 287 kts 311°
2026-05-07 21:42 50.19051 13.83550 12010 ft 299 kts 289°
2026-05-07 21:42 50.19416 13.80366 12246 ft 313 kts 269°
2026-05-07 21:43 50.19025 13.76989 12491 ft 329 kts 252°
2026-05-07 21:43 50.18130 13.73628 12754 ft 343 kts 247°
2026-05-07 21:43 50.17226 13.70306 13184 ft 350 kts 249°
2026-05-07 21:43 50.16379 13.66700 13948 ft 353 kts 251°
2026-05-07 21:44 50.15592 13.63292 14487 ft 357 kts 252°
2026-05-07 21:44 50.14746 13.59521 14997 ft 362 kts 252°
2026-05-07 21:44 50.13921 13.55774 15561 ft 364 kts 252°
2026-05-07 21:44 50.13120 13.52109 16078 ft 367 kts 252°
2026-05-07 21:45 50.12311 13.48392 16592 ft 370 kts 252°
2026-05-07 21:45 50.11494 13.44638 17102 ft 373 kts 252°
2026-05-07 21:45 50.10675 13.40870 17595 ft 376 kts 252°
2026-05-07 21:45 50.09871 13.37109 18067 ft 378 kts 254°
2026-05-07 21:46 50.09270 13.33301 18535 ft 380 kts 260°
2026-05-07 21:46 50.08922 13.29322 18988 ft 382 kts 265°
2026-05-07 21:46 50.08737 13.25308 19435 ft 385 kts 267°
2026-05-07 21:46 50.08634 13.21372 19868 ft 387 kts 268°
2026-05-07 21:47 50.08540 13.17093 20304 ft 390 kts 268°
2026-05-07 21:47 50.08440 13.13048 20673 ft 394 kts 268°
2026-05-07 21:47 50.08333 13.08889 21093 ft 396 kts 268°
2026-05-07 21:47 50.08250 13.05013 21454 ft 398 kts 270°
2026-05-07 21:48 50.08374 13.00898 21823 ft 401 kts 275°
2026-05-07 21:48 50.08845 12.96702 22204 ft 404 kts 282°
2026-05-07 21:48 50.09427 12.92566 22574 ft 406 kts 282°
2026-05-07 21:48 50.10041 12.88475 22898 ft 409 kts 283°
2026-05-07 21:49 50.10745 12.84104 23260 ft 411 kts 283°
2026-05-07 21:49 50.11483 12.79802 23616 ft 414 kts 284°
2026-05-07 21:49 50.12206 12.75670 23936 ft 416 kts 284°
2026-05-07 21:49 50.12926 12.71394 24268 ft 418 kts 283°
2026-05-07 21:50 50.13627 12.67133 24582 ft 420 kts 283°
2026-05-07 21:50 50.14334 12.62795 24895 ft 422 kts 283°
2026-05-07 21:50 50.15040 12.58446 25196 ft 425 kts 283°
2026-05-07 21:50 50.15753 12.54031 25503 ft 426 kts 283°
2026-05-07 21:51 50.16482 12.49514 25797 ft 429 kts 283°
2026-05-07 21:51 50.17161 12.45303 26065 ft 430 kts 283°
2026-05-07 21:51 50.17902 12.40710 26352 ft 432 kts 283°
2026-05-07 21:51 50.18511 12.36207 26626 ft 433 kts 278°
2026-05-07 21:52 50.18869 12.31630 26870 ft 435 kts 274°
2026-05-07 21:52 50.19036 12.26992 27130 ft 437 kts 271°
2026-05-07 21:52 50.19075 12.22472 27369 ft 439 kts 270°
2026-05-07 21:52 50.19044 12.17881 27602 ft 440 kts 269°
2026-05-07 21:53 50.19008 12.13470 27833 ft 442 kts 269°
2026-05-07 21:53 50.18976 12.08949 28050 ft 443 kts 269°
2026-05-07 21:53 50.18943 12.04068 28367 ft 443 kts 269°
2026-05-07 21:53 50.18912 11.99417 28761 ft 440 kts 269°
2026-05-07 21:54 50.18882 11.94779 29065 ft 440 kts 269°
2026-05-07 21:54 50.18851 11.90128 29285 ft 442 kts 269°
2026-05-07 21:54 50.18821 11.85381 29593 ft 441 kts 269°
2026-05-07 21:54 50.18806 11.80749 29977 ft 438 kts 272°
2026-05-07 21:55 50.18932 11.76043 30247 ft 438 kts 271°
2026-05-07 21:55 50.18974 11.71648 30434 ft 440 kts 271°
2026-05-07 21:55 50.19019 11.66769 30767 ft 438 kts 271°
2026-05-07 21:55 50.19066 11.62120 31132 ft 436 kts 271°
2026-05-07 21:56 50.19112 11.57650 31345 ft 437 kts 271°
2026-05-07 21:56 50.19162 11.52931 31551 ft 438 kts 271°
2026-05-07 21:56 50.19211 11.48342 31898 ft 435 kts 271°
2026-05-07 21:56 50.19263 11.43866 32192 ft 433 kts 271°
2026-05-07 21:57 50.19383 11.39128 32385 ft 435 kts 272°
2026-05-07 21:57 50.19471 11.34423 32593 ft 435 kts 271°
2026-05-07 21:57 50.19529 11.29679 32934 ft 433 kts 271°
2026-05-07 21:57 50.19573 11.24998 33134 ft 433 kts 271°
2026-05-07 21:58 50.19606 11.20923 33296 ft 434 kts 270°
2026-05-07 21:58 50.19642 11.16090 33595 ft 432 kts 270°
2026-05-07 21:58 50.19676 11.11484 33855 ft 431 kts 270°
2026-05-07 21:58 50.19709 11.06876 34002 ft 433 kts 270°
2026-05-07 21:59 50.19777 10.97480 33998 ft 439 kts 270°
2026-05-07 21:59 50.19372 10.88095 33997 ft 442 kts 263°
2026-05-07 22:00 50.18521 10.78747 33997 ft 440 kts 262°
2026-05-07 22:00 50.17760 10.69570 33996 ft 438 kts 263°
2026-05-07 22:01 50.16961 10.60242 33997 ft 438 kts 262°
2026-05-07 22:01 50.16147 10.51087 33998 ft 438 kts 262°
2026-05-07 22:02 50.15337 10.42067 33997 ft 438 kts 262°
2026-05-07 22:02 50.14494 10.32701 33997 ft 438 kts 262°
2026-05-07 22:03 50.13665 10.23438 33997 ft 438 kts 262°
2026-05-07 22:03 50.12812 10.14171 33998 ft 438 kts 262°
2026-05-07 22:04 50.11966 10.05065 33995 ft 438 kts 262°
2026-05-07 22:04 50.11140 9.95963 33997 ft 438 kts 263°
2026-05-07 22:05 50.10371 9.86863 33996 ft 438 kts 262°
2026-05-07 22:05 50.09485 9.77428 33997 ft 438 kts 262°
2026-05-07 22:06 50.08623 9.68475 33998 ft 438 kts 262°
2026-05-07 22:06 50.07765 9.59605 33997 ft 438 kts 262°
2026-05-07 22:07 50.07213 9.50638 33996 ft 438 kts 271°
2026-05-07 22:07 50.07973 9.41720 33997 ft 438 kts 282°
2026-05-07 22:08 50.09477 9.32651 33996 ft 438 kts 284°
2026-05-07 22:08 50.11018 9.23825 33995 ft 438 kts 284°
2026-05-07 22:09 50.12538 9.15025 33997 ft 438 kts 284°
2026-05-07 22:09 50.14091 9.05963 33997 ft 438 kts 284°
2026-05-07 22:10 50.15583 8.97206 33997 ft 438 kts 284°
2026-05-07 22:10 50.17150 8.88478 33997 ft 439 kts 284°
2026-05-07 22:11 50.18721 8.79569 33997 ft 439 kts 284°
2026-05-07 22:11 50.20240 8.70762 33996 ft 439 kts 284°
2026-05-07 22:12 50.21770 8.61795 33997 ft 438 kts 284°
2026-05-07 22:12 50.23257 8.53015 33998 ft 438 kts 284°
2026-05-07 22:13 50.24816 8.43748 33997 ft 438 kts 284°
2026-05-07 22:13 50.26341 8.34633 33997 ft 438 kts 284°
2026-05-07 22:14 50.27825 8.25712 33997 ft 438 kts 284°
2026-05-07 22:14 50.29055 8.18275 33997 ft 438 kts 284°
2026-05-07 22:15 50.30555 8.09176 33997 ft 438 kts 283°
2026-05-07 22:15 50.32052 8.00036 33997 ft 438 kts 283°
2026-05-07 22:16 50.33482 7.91266 33997 ft 438 kts 283°
2026-05-07 22:16 50.34971 7.82076 33997 ft 438 kts 283°
2026-05-07 22:17 50.36384 7.73311 34000 ft 438 kts 283°
2026-05-07 22:17 50.37808 7.64436 33997 ft 438 kts 283°
2026-05-07 22:18 50.39993 7.50717 33997 ft 438 kts 283°
2026-05-07 22:19 50.41416 7.41726 33997 ft 438 kts 283°
2026-05-07 22:19 50.42862 7.32538 33997 ft 438 kts 283°
2026-05-07 22:20 50.44320 7.23553 33997 ft 438 kts 283°
2026-05-07 22:20 50.45749 7.14387 33997 ft 438 kts 283°
2026-05-07 22:21 50.47113 7.05452 33997 ft 438 kts 283°
2026-05-07 22:21 50.48488 6.96395 33997 ft 438 kts 282°
2026-05-07 22:22 50.49871 6.87273 33997 ft 438 kts 283°
2026-05-07 22:22 50.51546 6.78219 33998 ft 439 kts 289°
2026-05-07 22:23 50.53709 6.69316 33997 ft 439 kts 290°
2026-05-07 22:23 50.55880 6.60536 33997 ft 439 kts 290°
2026-05-07 22:24 50.58022 6.51745 33997 ft 439 kts 290°
2026-05-07 22:24 50.59691 6.44841 33997 ft 439 kts 290°
2026-05-07 22:25 50.61750 6.36275 33997 ft 439 kts 289°
2026-05-07 22:25 50.63799 6.27852 33997 ft 439 kts 290°
2026-05-07 22:26 50.65950 6.19219 33996 ft 439 kts 290°
2026-05-07 22:26 50.68113 6.10344 33996 ft 439 kts 290°
2026-05-07 22:27 50.70172 6.01798 33997 ft 439 kts 289°
2026-05-07 22:27 50.72331 5.92768 33997 ft 439 kts 289°
2026-05-07 22:28 50.74450 5.83865 33996 ft 439 kts 289°
2026-05-07 22:28 50.76555 5.74969 33997 ft 439 kts 289°
2026-05-07 22:29 50.78556 5.66481 33998 ft 439 kts 289°
2026-05-07 22:29 50.80664 5.57505 33998 ft 439 kts 289°
2026-05-07 22:30 50.82697 5.48808 33996 ft 439 kts 289°
2026-05-07 22:30 50.84773 5.39893 33998 ft 439 kts 289°
2026-05-07 22:31 50.86799 5.31156 33996 ft 439 kts 289°
2026-05-07 22:31 50.88834 5.22341 33997 ft 439 kts 289°
2026-05-07 22:32 50.90901 5.13356 33997 ft 439 kts 289°
2026-05-07 22:32 50.92878 5.04721 33996 ft 439 kts 289°
2026-05-07 22:33 50.94953 4.95624 33997 ft 439 kts 289°
2026-05-07 22:33 50.96977 4.86714 33997 ft 439 kts 289°
2026-05-07 22:34 50.98928 4.78082 33997 ft 439 kts 289°
2026-05-07 22:34 51.00936 4.69168 33997 ft 439 kts 288°
2026-05-07 22:35 51.02869 4.60548 33997 ft 439 kts 288°
2026-05-07 22:35 51.04862 4.51624 33997 ft 439 kts 288°
2026-05-07 22:36 51.06897 4.42473 33997 ft 439 kts 288°
2026-05-07 22:36 51.08857 4.33620 33998 ft 439 kts 288°
2026-05-07 22:37 51.10850 4.24580 33997 ft 439 kts 288°
2026-05-07 22:37 51.12788 4.15755 33997 ft 439 kts 288°
2026-05-07 22:38 51.14803 4.06796 33997 ft 439 kts 288°
2026-05-07 22:38 51.16801 3.97616 33997 ft 439 kts 288°
2026-05-07 22:39 51.18740 3.88576 33996 ft 439 kts 288°
2026-05-07 22:39 51.20659 3.79590 33997 ft 439 kts 288°
2026-05-07 22:40 51.22584 3.70569 33997 ft 439 kts 288°
2026-05-07 22:40 51.24222 3.61524 33998 ft 438 kts 281°
2026-05-07 22:41 51.25406 3.52230 33998 ft 438 kts 281°
2026-05-07 22:41 51.26615 3.42907 33997 ft 438 kts 281°
2026-05-07 22:42 51.27840 3.33449 33995 ft 438 kts 281°
2026-05-07 22:42 51.29064 3.24022 33996 ft 438 kts 282°
2026-05-07 22:43 51.30313 3.14817 33997 ft 438 kts 281°
2026-05-07 22:43 51.31511 3.05404 33998 ft 438 kts 281°
2026-05-07 22:44 51.32680 2.96064 33997 ft 438 kts 281°
2026-05-07 22:44 51.33851 2.86649 33997 ft 438 kts 281°
2026-05-07 22:45 51.35001 2.77412 33997 ft 438 kts 281°
2026-05-07 22:45 51.36190 2.68083 33997 ft 438 kts 281°
2026-05-07 22:46 51.37330 2.58861 33998 ft 438 kts 280°
2026-05-07 22:46 51.38427 2.49693 33997 ft 438 kts 280°
2026-05-07 22:47 51.39473 2.40877 33997 ft 438 kts 280°
2026-05-07 22:47 51.40551 2.31786 33997 ft 438 kts 280°
2026-05-07 22:48 51.41677 2.22363 33996 ft 438 kts 280°
2026-05-07 22:48 51.42770 2.13153 33997 ft 438 kts 280°
2026-05-07 22:49 51.43851 2.03877 33996 ft 438 kts 280°
2026-05-07 22:49 51.44919 1.95024 33997 ft 438 kts 281°
2026-05-07 22:50 51.46093 1.85867 33997 ft 438 kts 281°
2026-05-07 22:50 51.47158 1.76631 33997 ft 438 kts 279°
2026-05-07 22:51 51.48213 1.67288 33997 ft 438 kts 279°
2026-05-07 22:51 51.49286 1.57881 33997 ft 438 kts 280°
2026-05-07 22:52 51.50394 1.48441 33997 ft 438 kts 279°
2026-05-07 22:52 51.51399 1.39374 33997 ft 438 kts 279°
2026-05-07 22:53 51.52395 1.30262 33997 ft 438 kts 279°
2026-05-07 22:53 51.53382 1.21201 33998 ft 438 kts 279°
2026-05-07 22:54 51.54405 1.11818 33997 ft 438 kts 279°
2026-05-07 22:54 51.55430 1.02493 33998 ft 438 kts 279°
2026-05-07 22:55 51.56418 0.93404 33997 ft 438 kts 279°
2026-05-07 22:55 51.57423 0.84190 33987 ft 424 kts 279°
2026-05-07 22:55 51.57874 0.79914 33984 ft 411 kts 279°
2026-05-07 22:56 51.58314 0.75704 33985 ft 402 kts 279°
2026-05-07 22:56 51.59053 0.68646 33989 ft 392 kts 279°
2026-05-07 22:57 51.60060 0.59281 33998 ft 393 kts 280°
2026-05-07 22:57 51.61044 0.51059 33997 ft 397 kts 279°
2026-05-07 22:58 51.61885 0.42534 33996 ft 395 kts 278°
2026-05-07 22:58 51.62716 0.34149 33997 ft 395 kts 278°
2026-05-07 22:59 51.63419 0.27075 33996 ft 395 kts 278°
2026-05-07 22:59 51.64874 0.17287 33993 ft 397 kts 294°
2026-05-07 23:00 51.67955 0.10166 34008 ft 401 kts 308°
2026-05-07 23:00 51.70983 0.04787 33997 ft 402 kts 311°
2026-05-07 23:01 51.74776 -0.01543 33995 ft 401 kts 311°
2026-05-07 23:01 51.78453 -0.07661 33997 ft 401 kts 311°
2026-05-07 23:02 51.82412 -0.14253 33996 ft 401 kts 311°
2026-05-07 23:02 51.86264 -0.20677 33997 ft 401 kts 311°
2026-05-07 23:03 51.90104 -0.27032 33997 ft 401 kts 312°
2026-05-07 23:03 51.94006 -0.33447 33911 ft 388 kts 312°
2026-05-07 23:04 51.97548 -0.39341 33743 ft 369 kts 311°
2026-05-07 23:04 52.00830 -0.44831 33532 ft 353 kts 311°
2026-05-07 23:04 52.02494 -0.47608 33340 ft 347 kts 312°
2026-05-07 23:05 52.04160 -0.50351 33060 ft 344 kts 311°
2026-05-07 23:05 52.05694 -0.52903 32763 ft 343 kts 311°
2026-05-07 23:05 52.07395 -0.55757 32342 ft 352 kts 311°
2026-05-07 23:05 52.09088 -0.58615 31940 ft 365 kts 311°
2026-05-07 23:06 52.10807 -0.61527 31534 ft 374 kts 311°
2026-05-07 23:06 52.12567 -0.64515 31124 ft 379 kts 311°
2026-05-07 23:06 52.14307 -0.67476 30716 ft 377 kts 311°
2026-05-07 23:06 52.16084 -0.70501 30300 ft 377 kts 311°
2026-05-07 23:07 52.17688 -0.73236 29923 ft 377 kts 311°
2026-05-07 23:07 52.19477 -0.76286 29559 ft 375 kts 311°
2026-05-07 23:07 52.21172 -0.79177 29459 ft 366 kts 311°
2026-05-07 23:07 52.22890 -0.82091 29260 ft 360 kts 313°
2026-05-07 23:08 52.24740 -0.84799 28976 ft 359 kts 318°
2026-05-07 23:08 52.26744 -0.87169 28675 ft 357 kts 323°
2026-05-07 23:08 52.28818 -0.89290 28378 ft 355 kts 326°
2026-05-07 23:08 52.30830 -0.91255 28091 ft 352 kts 326°
2026-05-07 23:09 52.32978 -0.93375 27782 ft 349 kts 325°
2026-05-07 23:09 52.35041 -0.95425 27481 ft 346 kts 325°
2026-05-07 23:09 52.36980 -0.97359 27196 ft 344 kts 325°
2026-05-07 23:09 52.38978 -0.99356 26901 ft 342 kts 325°
2026-05-07 23:10 52.41027 -1.01407 26596 ft 340 kts 325°
2026-05-07 23:10 52.42884 -1.03268 26319 ft 338 kts 325°
2026-05-07 23:10 52.44971 -1.05358 26006 ft 337 kts 325°
2026-05-07 23:10 52.46939 -1.07329 25712 ft 338 kts 325°
2026-05-07 23:11 52.48812 -1.09211 25434 ft 340 kts 325°
2026-05-07 23:11 52.50886 -1.11308 25127 ft 342 kts 325°
2026-05-07 23:11 52.52876 -1.13325 24832 ft 341 kts 325°
2026-05-07 23:11 52.54875 -1.15355 24533 ft 339 kts 324°
2026-05-07 23:12 52.56517 -1.17026 24286 ft 337 kts 325°
2026-05-07 23:12 52.58497 -1.19014 23988 ft 335 kts 325°
2026-05-07 23:12 52.60338 -1.20872 23679 ft 334 kts 325°
2026-05-07 23:12 52.62300 -1.22861 23311 ft 334 kts 324°
2026-05-07 23:13 52.64223 -1.24816 22947 ft 334 kts 324°
2026-05-07 23:13 52.66146 -1.26773 22729 ft 329 kts 324°
2026-05-07 23:13 52.68021 -1.28680 22734 ft 316 kts 324°
2026-05-07 23:13 52.69839 -1.30534 22651 ft 306 kts 324°
2026-05-07 23:14 52.71612 -1.32344 22213 ft 308 kts 324°
2026-05-07 23:14 52.73430 -1.34193 21754 ft 311 kts 324°
2026-05-07 23:14 52.75129 -1.35925 21523 ft 306 kts 324°
2026-05-07 23:14 52.76953 -1.37787 21458 ft 295 kts 324°
2026-05-07 23:15 52.78587 -1.39432 21226 ft 292 kts 325°
2026-05-07 23:15 52.80198 -1.41045 20965 ft 289 kts 324°
2026-05-07 23:15 52.81758 -1.42622 20712 ft 287 kts 324°
2026-05-07 23:15 52.83383 -1.44275 20447 ft 284 kts 324°
2026-05-07 23:16 52.84939 -1.45866 20177 ft 282 kts 324°
2026-05-07 23:16 52.86591 -1.47561 19826 ft 283 kts 324°
2026-05-07 23:16 52.88240 -1.49256 19455 ft 284 kts 324°
2026-05-07 23:16 52.89781 -1.50843 19377 ft 274 kts 324°
2026-05-07 23:17 52.91384 -1.52497 19317 ft 263 kts 323°
2026-05-07 23:17 52.92855 -1.54016 19213 ft 255 kts 323°
2026-05-07 23:17 52.94382 -1.55594 18906 ft 255 kts 323°
2026-05-07 23:17 52.95812 -1.57072 18598 ft 255 kts 323°
2026-05-07 23:18 52.97247 -1.58557 18381 ft 251 kts 323°
2026-05-07 23:18 52.98703 -1.60064 18076 ft 251 kts 323°
2026-05-07 23:18 53.00153 -1.61565 17759 ft 252 kts 323°
2026-05-07 23:18 53.01546 -1.63007 17552 ft 248 kts 323°
2026-05-07 23:19 53.02990 -1.64500 17330 ft 244 kts 323°
2026-05-07 23:19 53.04385 -1.65962 17019 ft 244 kts 321°
2026-05-07 23:19 53.05674 -1.67689 16708 ft 241 kts 313°
2026-05-07 23:19 53.06679 -1.69396 16583 ft 233 kts 308°
2026-05-07 23:20 53.07677 -1.71301 16500 ft 223 kts 306°
2026-05-07 23:20 53.08651 -1.73218 16369 ft 215 kts 306°
2026-05-07 23:20 53.09560 -1.75007 15951 ft 221 kts 306°
2026-05-07 23:20 53.10521 -1.76903 15389 ft 234 kts 307°
2026-05-07 23:21 53.11476 -1.78984 15033 ft 235 kts 302°
2026-05-07 23:21 53.12444 -1.80987 14973 ft 225 kts 308°
2026-05-07 23:21 53.13500 -1.82903 14891 ft 215 kts 309°
2026-05-07 23:21 53.14473 -1.84672 14788 ft 205 kts 308°
2026-05-07 23:22 53.15366 -1.86349 14657 ft 196 kts 307°
2026-05-07 23:22 53.16195 -1.87935 14414 ft 193 kts 307°
2026-05-07 23:22 53.17065 -1.89617 14119 ft 192 kts 307°
2026-05-07 23:22 53.17834 -1.91112 13875 ft 190 kts 306°
2026-05-07 23:23 53.18680 -1.92763 13501 ft 189 kts 306°
2026-05-07 23:23 53.19555 -1.94474 13123 ft 187 kts 306°
2026-05-07 23:23 53.20337 -1.96005 12946 ft 175 kts 306°
2026-05-07 23:23 53.21099 -1.97497 12727 ft 164 kts 306°
2026-05-07 23:24 53.21811 -1.98891 12305 ft 166 kts 306°
2026-05-07 23:24 53.22557 -2.00354 11902 ft 166 kts 306°
2026-05-07 23:24 53.23286 -2.01780 11575 ft 162 kts 308°
2026-05-07 23:24 53.24257 -2.02726 11120 ft 174 kts 339°
2026-05-07 23:25 53.25451 -2.02963 10768 ft 175 kts 348°
2026-05-07 23:25 53.26653 -2.03141 10264 ft 184 kts 348°
2026-05-07 23:25 53.27900 -2.03307 9695 ft 191 kts 349°
2026-05-07 23:25 53.29124 -2.03462 9116 ft 198 kts 349°
2026-05-07 23:26 53.30409 -2.03618 8507 ft 204 kts 350°
2026-05-07 23:26 53.31793 -2.03782 7877 ft 208 kts 350°
2026-05-07 23:26 53.33236 -2.03949 7255 ft 211 kts 351°
2026-05-07 23:26 53.34674 -2.04113 6657 ft 211 kts 351°
2026-05-07 23:27 53.37443 -2.04426 5691 ft 201 kts 353°
2026-05-07 23:27 53.38746 -2.04572 5239 ft 196 kts 354°
2026-05-07 23:27 53.40147 -2.04729 4740 ft 192 kts 355°
2026-05-07 23:28 53.41382 -2.04867 4292 ft 189 kts 355°
2026-05-07 23:28 53.42742 -2.05019 3793 ft 187 kts 356°
2026-05-07 23:28 53.43940 -2.05153 3511 ft 176 kts 356°
2026-05-07 23:28 53.45149 -2.05288 3346 ft 160 kts 356°
2026-05-07 23:29 53.46136 -2.05399 3341 ft 145 kts 356°
2026-05-07 23:29 53.47051 -2.06132 3291 ft 149 kts 305°
2026-05-07 23:29 53.47178 -2.07667 3339 ft 151 kts 253°
2026-05-07 23:29 53.46434 -2.08924 3292 ft 155 kts 205°
2026-05-07 23:30 53.45426 -2.09612 3041 ft 158 kts 206°
2026-05-07 23:30 53.44542 -2.10702 2588 ft 159 kts 221°
2026-05-07 23:30 53.43756 -2.11862 2405 ft 148 kts 221°
2026-05-07 23:30 53.43016 -2.12995 2437 ft 147 kts 224°
2026-05-07 23:31 53.42304 -2.14201 2359 ft 158 kts 227°
2026-05-07 23:31 53.41553 -2.15706 2006 ft 168 kts 230°
2026-05-07 23:31 53.40794 -2.17168 1499 ft 174 kts 229°
2026-05-07 23:31 53.40039 -2.18595 1315 ft 161 kts 228°
2026-05-07 23:32 53.39352 -2.19888 1507 ft 154 kts 228°
2026-05-07 23:32 53.38651 -2.21206 1509 ft 162 kts 228°
2026-05-07 23:32 53.37883 -2.22650 937 ft 175 kts 228°
2026-05-07 23:32 53.37117 -2.24159 678 ft 161 kts 232°
2026-05-07 23:33 53.36380 -2.25451 504 ft 155 kts 230°
2026-05-07 23:33 53.35707 -2.26797 266 ft 150 kts 227°
2026-05-07 23:33 53.35229 -2.27915 267 ft 127 kts 218°
2026-05-07 23:33 53.34818 -2.28606 265 ft 36 kts 281°
2026-05-07 23:34 53.34874 -2.28699 265 ft 9 kts 349°
2026-05-07 23:34 53.34891 -2.28702 265 ft 0 kts 357°